When you browse on this site, cookies collect data to enhance your experience and personalize the content and advertising you see.
Visit our Privacy Policy to learn more. By continuing to use the site, you agree to this use of cookies and data.
  • In Hungary
  • List of Countries
  • For 7 days
  • Water Temperature
  • Weather Map
  • News
  • Weather Widgets
  • user-avatar
    Login

    Hourly Weather Bangarapet

    Today, 29 February, Saturday

    Time Temperature Precipitation Wind Pressure Humidity
    00:00 +19°C° 0 mm 4 mps 689 mmHg 90%
    01:00 +19°C° 0 mm 4 mps 689 mmHg 93%
    02:00 +19°C° 0 mm 3 mps 688 mmHg 96%
    03:00 +18°C° 0 mm 3 mps 688 mmHg 96%
    04:00 +18°C° 0 mm 2 mps 688 mmHg 96%
    05:00 +19°C° 0 mm 1 mps 689 mmHg 97%
    06:00 +19°C° 0 mm 2 mps 689 mmHg 89%
    07:00 +20°C° 0 mm 2 mps 690 mmHg 82%
    08:00 +22°C° 0 mm 3 mps 691 mmHg 74%
    09:00 +25°C° 0 mm 3 mps 691 mmHg 63%
    10:00 +27°C° 0 mm 3 mps 691 mmHg 52%
    11:00 +29°C° 0 mm 3 mps 691 mmHg 41%
    12:00 +30°C° 0 mm 3 mps 690 mmHg 37%
    13:00 +31°C° 0 mm 3 mps 689 mmHg 33%
    14:00 +32°C° 0 mm 2 mps 688 mmHg 29%
    15:00 +33°C° 0 mm 3 mps 688 mmHg 32%
    16:00 +32°C° 0 mm 4 mps 688 mmHg 35%
    17:00 +30°C° 0 mm 5 mps 688 mmHg 38%
    18:00 +28°C° 0.1 mm 6 mps 688 mmHg 51%
    19:00 +24°C° 0.1 mm 6 mps 689 mmHg 64%
    20:00 +22°C° 0.1 mm 6 mps 689 mmHg 77%
    21:00 +21°C° 0 mm 6 mps 689 mmHg 81%
    22:00 +21°C° 0 mm 5 mps 690 mmHg 85%
    23:00 +20°C° 0 mm 4 mps 690 mmHg 88%

    Tomorrow, 1 March, Sunday

    Time Temperature Precipitation Wind Pressure Humidity
    00:00 +20°C° 0 mm 4 mps 690 mmHg 90%
    01:00 +20°C° 0 mm 3 mps 689 mmHg 91%
    02:00 +19°C° 0 mm 2 mps 689 mmHg 93%
    03:00 +19°C° 0 mm 2 mps 689 mmHg 93%
    04:00 +19°C° 0 mm 2 mps 689 mmHg 93%
    05:00 +19°C° 0 mm 2 mps 689 mmHg 94%
    06:00 +20°C° 0 mm 2 mps 690 mmHg 87%
    07:00 +21°C° 0 mm 2 mps 690 mmHg 81%
    08:00 +23°C° 0 mm 2 mps 691 mmHg 74%
    09:00 +25°C° 0 mm 3 mps 691 mmHg 62%
    10:00 +28°C° 0 mm 3 mps 691 mmHg 49%
    11:00 +30°C° 0 mm 3 mps 691 mmHg 37%
    12:00 +31°C° 0 mm 3 mps 691 mmHg 33%
    13:00 +33°C° 0 mm 3 mps 690 mmHg 29%
    14:00 +34°C° 0 mm 4 mps 689 mmHg 25%
    15:00 +34°C° 0 mm 4 mps 689 mmHg 26%
    16:00 +33°C° 0 mm 4 mps 688 mmHg 27%
    17:00 +33°C° 0 mm 5 mps 688 mmHg 28%
    18:00 +29°C° 0 mm 5 mps 688 mmHg 36%
    19:00 +27°C° 0 mm 5 mps 689 mmHg 44%
    20:00 +23°C° 0 mm 6 mps 689 mmHg 52%
    21:00 +22°C° 0 mm 5 mps 689 mmHg 60%
    22:00 +21°C° 0 mm 4 mps 689 mmHg 67%
    23:00 +20°C° 0 mm 4 mps 689 mmHg 75%

    Day after tomorrow, 2 March, Monday

    Time Temperature Precipitation Wind Pressure Humidity
    00:00 +19°C° 0 mm 3 mps 689 mmHg 78%
    01:00 +19°C° 0 mm 2 mps 689 mmHg 81%
    02:00 +18°C° 0 mm 2 mps 688 mmHg 83%
    03:00 +19°C° 0 mm 1 mps 688 mmHg 84%
    04:00 +19°C° 0 mm 1 mps 688 mmHg 84%
    05:00 +19°C° 0 mm 1 mps 688 mmHg 84%
    06:00 +20°C° 0 mm 1 mps 689 mmHg 75%
    07:00 +21°C° 0 mm 2 mps 690 mmHg 66%
    08:00 +24°C° 0 mm 2 mps 691 mmHg 57%
    09:00 +26°C° 0 mm 2 mps 691 mmHg 48%
    10:00 +28°C° 0 mm 2 mps 691 mmHg 39%
    11:00 +31°C° 0 mm 2 mps 692 mmHg 29%
    12:00 +33°C° 0 mm 3 mps 691 mmHg 27%
    13:00 +34°C° 0 mm 3 mps 690 mmHg 25%
    14:00 +35°C° 0 mm 3 mps 689 mmHg 22%
    15:00 +34°C° 0 mm 3 mps 689 mmHg 24%
    16:00 +33°C° 0 mm 3 mps 689 mmHg 25%
    17:00 +33°C° 0 mm 4 mps 689 mmHg 26%
    18:00 +30°C° 0 mm 4 mps 689 mmHg 30%
    19:00 +29°C° 0 mm 4 mps 689 mmHg 33%
    20:00 +28°C° 0 mm 4 mps 690 mmHg 37%
    21:00 +26°C° 0 mm 3 mps 690 mmHg 48%
    22:00 +24°C° 0 mm 3 mps 690 mmHg 59%
    23:00 +21°C° 0 mm 3 mps 690 mmHg 70%

    3 March, Tuesday

    Time Temperature Precipitation Wind Pressure Humidity
    00:00 +21°C° 0 mm 2 mps 689 mmHg 72%
    01:00 +20°C° 0 mm 2 mps 689 mmHg 74%
    02:00 +20°C° 0 mm 1 mps 689 mmHg 76%
    03:00 +20°C° 0 mm 1 mps 688 mmHg 78%
    04:00 +20°C° 0 mm 1 mps 688 mmHg 79%
    05:00 +19°C° 0 mm 2 mps 688 mmHg 81%
    06:00 +21°C° 0 mm 2 mps 689 mmHg 71%
    07:00 +23°C° 0 mm 2 mps 690 mmHg 61%
    08:00 +25°C° 0 mm 2 mps 691 mmHg 52%
    09:00 +28°C° 0 mm 2 mps 691 mmHg 44%
    10:00 +30°C° 0 mm 2 mps 691 mmHg 37%
    11:00 +32°C° 0 mm 2 mps 692 mmHg 29%
    12:00 +33°C° 0 mm 1 mps 691 mmHg 26%
    13:00 +34°C° 0 mm 1 mps 690 mmHg 24%
    14:00 +36°C° 0 mm 1 mps 689 mmHg 21%
    15:00 +36°C° 0 mm 2 mps 689 mmHg 22%
    16:00 +35°C° 0 mm 2 mps 688 mmHg 23%
    17:00 +34°C° 0 mm 3 mps 688 mmHg 25%
    18:00 +31°C° 0 mm 3 mps 688 mmHg 29%
    19:00 +29°C° 0 mm 3 mps 689 mmHg 32%
    20:00 +28°C° 0 mm 3 mps 689 mmHg 36%
    21:00 +27°C° 0 mm 3 mps 689 mmHg 41%
    22:00 +25°C° 0 mm 2 mps 689 mmHg 47%
    23:00 +24°C° 0 mm 2 mps 689 mmHg 52%

    4 March, Wednesday

    Time Temperature Precipitation Wind Pressure Humidity
    00:00 +24°C° 0 mm 2 mps 689 mmHg 53%
    01:00 +23°C° 0 mm 2 mps 688 mmHg 54%
    02:00 +23°C° 0 mm 2 mps 688 mmHg 55%
    03:00 +23°C° 0 mm 2 mps 688 mmHg 56%
    04:00 +21°C° 0 mm 2 mps 688 mmHg 56%
    05:00 +22°C° 0 mm 1 mps 688 mmHg 57%
    06:00 +24°C° 0 mm 2 mps 689 mmHg 55%
    07:00 +25°C° 0 mm 2 mps 690 mmHg 53%
    08:00 +27°C° 0 mm 3 mps 691 mmHg 52%
    09:00 +28°C° 0 mm 3 mps 691 mmHg 47%
    10:00 +30°C° 0 mm 3 mps 691 mmHg 42%
    11:00 +31°C° 0 mm 3 mps 691 mmHg 36%
    12:00 +31°C° 0 mm 3 mps 690 mmHg 37%
    13:00 +31°C° 0 mm 3 mps 689 mmHg 38%
    14:00 +31°C° 0 mm 3 mps 688 mmHg 38%
    15:00 +30°C° 0 mm 2 mps 688 mmHg 39%
    16:00 +30°C° 0 mm 2 mps 687 mmHg 40%
    17:00 +30°C° 0 mm 1 mps 687 mmHg 41%
    18:00 +29°C° 0 mm 1 mps 688 mmHg 43%
    19:00 +28°C° 0 mm 1 mps 688 mmHg 45%
    20:00 +27°C° 0 mm 1 mps 689 mmHg 47%
    21:00 +27°C° 0 mm 1 mps 689 mmHg 49%
    22:00 +26°C° 0 mm 1 mps 689 mmHg 51%
    23:00 +26°C° 0 mm 1 mps 689 mmHg 53%

    5 March, Thursday

    Time Temperature Precipitation Wind Pressure Humidity
    00:00 +25°C° 0 mm 1 mps 688 mmHg 56%
    01:00 +24°C° 0 mm 1 mps 688 mmHg 59%
    02:00 +24°C° 0 mm 1 mps 687 mmHg 62%
    03:00 +23°C° 0 mm 1 mps 687 mmHg 65%
    04:00 +23°C° 0 mm 1 mps 687 mmHg 67%
    05:00 +22°C° 0 mm 1 mps 687 mmHg 69%
    06:00 +24°C° 0 mm 1 mps 688 mmHg 64%
    07:00 +25°C° 0 mm 1 mps 689 mmHg 59%
    08:00 +27°C° 0 mm 1 mps 690 mmHg 54%
    09:00 +29°C° 0 mm 2 mps 690 mmHg 49%
    10:00 +30°C° 0 mm 3 mps 690 mmHg 44%
    11:00 +33°C° 0 mm 4 mps 690 mmHg 40%
    12:00 +33°C° 0 mm 3 mps 689 mmHg 39%
    13:00 +33°C° 0 mm 3 mps 688 mmHg 39%
    14:00 +33°C° 0 mm 3 mps 687 mmHg 38%
    15:00 +32°C° 0 mm 4 mps 687 mmHg 40%
    16:00 +30°C° 0 mm 4 mps 687 mmHg 42%
    17:00 +30°C° 0 mm 5 mps 687 mmHg 43%
    18:00 +29°C° 0 mm 4 mps 687 mmHg 44%
    19:00 +28°C° 0 mm 4 mps 688 mmHg 45%
    20:00 +27°C° 0 mm 3 mps 688 mmHg 46%
    21:00 +26°C° 0 mm 3 mps 688 mmHg 54%
    22:00 +25°C° 0 mm 3 mps 688 mmHg 63%
    23:00 +24°C° 0 mm 3 mps 688 mmHg 71%
    Show more